GAOFEN-13 01

Last updated on Mon Oct 14 2024 00:02:41 GMT+0000 (Coordinated Universal Time)

1 46610U 20071A 24287.53425322 -.00000364 00000+0 00000+0 0 9998 2 46610 0.0547 302.8029 0015500 255.5500 134.1408 1.00258864 14765
UTC large
Height (km)
Speed (km/s)
/
Latitude / Longitude
Inclination (degrees)
Orbital Period (minutes)
Azimuth
Elevation
Range (km)
Doppler Factor

Next 0 passes for location: London (51.5072 / 0.1276)

Sorry there are no passes over London.